Regional Weather Roundup
Issued by NWS

Home | Current Version | Previous Version | Text Only | Print | Product List | Glossary Off
Versions: 1 2 3 4 5 6 7 8 9 10 11 12 13 14 15 16 17 18 19 20 21 22 23 24 25 26 27 28 29 30 31 32 33 34 35 36 37 38 39 40 41 42 43 44 45 46 47 48 49 50

000
ASUS43 KOAX 260910
RWRNE

WEATHER ROUNDUP FOR NEBRASKA
NATIONAL WEATHER SERVICE OMAHA NE
400 AM CDT SAT MAY 26 2018

NOTES: SATELLITE DATA IS BEING USED TO AUGMENT CLOUD COVER ABOVE
       12000 FEET.
       "FAIR" INDICATES FEW OR NO CLOUDS BELOW 12,000 FEET WITH NO
       SIGNIFICANT WEATHER AND/OR OBSTRUCTIONS TO VISIBILITY.


NEZ001>004-019>022-054>056-261000-
NEBRASKA PANHANDLE

CITY           SKY/WX    TMP DP  RH WIND       PRES   REMARKS
SCOTTSBLUFF    CLEAR     58  54  86 E7        29.89F
ALLIANCE       CLEAR     50  50 100 SW3       29.91S
CHADRON        CLEAR     54  54 100 W3        29.87F
GORDON         FAIR      52  49  90 SW3       29.89F
KIMBALL        CLEAR     55  48  77 S6        29.95F
SIDNEY         CLEAR     55  48  77 S6        29.93F
$$

NEZ057>060-069>072-079>082-261000-
SOUTHWEST NEBRASKA

CITY           SKY/WX    TMP DP  RH WIND       PRES   REMARKS
NORTH PLATTE   CLEAR     56  54  93 CALM      29.86S
IMPERIAL       CLEAR     59  54  83 SW3       29.88S
LEXINGTON      CLEAR     61  57  86 NW5       29.85S
MCCOOK         CLEAR     64  57  78 W6        29.86R
OGALLALA       CLEAR     56  53  89 CALM      29.88F
$$

NEZ005>010-023>029-035>040-094-261000-
NORTH CENTRAL NEBRASKA

CITY           SKY/WX    TMP DP  RH WIND       PRES   REMARKS
VALENTINE      CLEAR     58  56  93 W5        29.85F
AINSWORTH      CLEAR     62  61  97 CALM      29.85F
BROKEN BOW     CLEAR     63  58  83 NW3       29.84F
O`NEILL        CLEAR     66  62  86 CALM      29.83S
ORD            CLEAR     61  59  93 CALM      29.81S
THEDFORD       CLEAR     59  57  92 CALM      29.89S
$$

NEZ041-046>049-061>064-073>077-083>087-261000-
SOUTH CENTRAL NEBRASKA

CITY           SKY/WX    TMP DP  RH WIND       PRES   REMARKS
GRAND ISLAND   CLEAR     67  62  84 CALM      29.81S
AURORA         CLEAR     65  62  88 W7        29.80S
HASTINGS       CLEAR     70  61  73 SW6       29.82S
HEBRON         CLEAR     71  65  83 CALM      29.80S
HOLDREGE       CLEAR     68  58  71 W8        29.84S
KEARNEY        CLEAR     68  58  70 W3        29.83S
YORK           CLEAR     66  66 100 CALM      29.80S
$$

NEZ011>018-030>034-042>045-261000-
NORTHEAST NEBRASKA

CITY           SKY/WX    TMP DP  RH WIND       PRES   REMARKS
NORFOLK        PTCLDY    64  58  80 CALM      29.78S
ALBION         CLEAR     62  61  96 CALM      29.81S
BLAIR          CLEAR     72  60  65 N5        29.76S
COLUMBUS       CLEAR     65  60  84 NW6       29.78F
FREMONT        CLEAR     67  61  80 W5        29.76S
TEKAMAH        CLEAR     66  61  84 CALM      29.74S
WAYNE          CLEAR     61  60  96 CALM      29.78S
$$

NEZ050>053-065>068-078-088>093-261000-
SOUTHEAST NEBRASKA

CITY           SKY/WX    TMP DP  RH WIND       PRES   REMARKS
LINCOLN        CLEAR     70  62  76 S5        29.77S
OMAHA EPPLEY   CLEAR     66  62  87 NW3       29.74S
BEATRICE       CLEAR     73  65  76 CALM      29.78S
FALLS CITY     CLEAR     71  64  78 SW3       29.76S
NEBRASKA CITY  CLEAR     74  64  70 W12       29.76S
PLATTSMOUTH    CLEAR     74  64  70 SW7       29.75S
$$

NEZ044-045-051>053-067-261000-
OMAHA AREA

CITY           SKY/WX    TMP DP  RH WIND       PRES   REMARKS
OMAHA EPPLEY   CLEAR     66  62  87 NW3       29.74S
BLAIR          CLEAR     72  60  65 N5        29.76S
FREMONT        CLEAR     67  61  80 W5        29.76S
MILLARD        CLEAR     68  64  85 CALM      29.75S
OFFUTT AFB     CLEAR     68  62  79 SE5       29.73S
PLATTSMOUTH    CLEAR     74  64  70 SW7       29.75S
WAHOO          FAIR      65  57  75 N3        29.76S
$$




USA.gov is the U.S. government's official web portal to all federal, state and local government web resources and services.